YRKTX LHMR-LHHO

Flight info

Callsign YRKTX
Flight time 0h 33m
Altitude 3000
Route TISZAFURED NADUDVAR
Aircraft C152/L-SY/C

Departure

Time 2026-05-04 14:32
Airport Maklár Airfield (LHMR)

Arrival

Time 2026-05-04 15:05
Airport Hajdúszoboszló Airfield (LHHO)
Time Latitude Longitude Altitude Speed Heading
2026-05-04 14:11 47.81486 20.41958 426 ft 0 kts 340°
2026-05-04 14:22 47.81504 20.41965 421 ft 7 kts 21°
2026-05-04 14:22 47.81516 20.41967 423 ft 1 kts 338°
2026-05-04 14:22 47.81523 20.41963 425 ft 4 kts 342°
2026-05-04 14:22 47.81562 20.41999 420 ft 11 kts 68°
2026-05-04 14:23 47.81594 20.42132 420 ft 4 kts 41°
2026-05-04 14:23 47.81604 20.42152 418 ft 0 kts 63°
2026-05-04 14:26 47.81604 20.42153 418 ft 0 kts 62°
2026-05-04 14:28 47.81607 20.42161 420 ft 2 kts 62°
2026-05-04 14:28 47.81616 20.42187 421 ft 3 kts 63°
2026-05-04 14:28 47.81616 20.42188 421 ft 0 kts 68°
2026-05-04 14:30 47.81617 20.42191 416 ft 1 kts 68°
2026-05-04 14:30 47.81303 20.42273 439 ft 62 kts 178°
2026-05-04 14:31 47.80888 20.42343 686 ft 57 kts 177°
2026-05-04 14:31 47.80062 20.42526 988 ft 62 kts 174°
2026-05-04 14:32 47.79309 20.43220 1496 ft 69 kts 139°
2026-05-04 14:32 47.79025 20.43788 1786 ft 69 kts 136°
2026-05-04 14:32 47.78730 20.44366 2021 ft 72 kts 136°
2026-05-04 14:32 47.78417 20.44956 2200 ft 72 kts 136°
2026-05-04 14:33 47.78107 20.45541 2394 ft 72 kts 139°
2026-05-04 14:33 47.77787 20.46116 2565 ft 71 kts 135°
2026-05-04 14:33 47.77457 20.46689 2744 ft 73 kts 142°
2026-05-04 14:33 47.77134 20.47258 2937 ft 72 kts 140°
2026-05-04 14:34 47.76785 20.47870 3014 ft 84 kts 139°
2026-05-04 14:34 47.76392 20.48527 3032 ft 88 kts 138°
2026-05-04 14:34 47.75992 20.49224 3037 ft 89 kts 137°
2026-05-04 14:34 47.75588 20.49921 3024 ft 88 kts 139°
2026-05-04 14:35 47.75179 20.50602 3016 ft 88 kts 138°
2026-05-04 14:35 47.74790 20.51305 3003 ft 89 kts 136°
2026-05-04 14:35 47.74404 20.52018 3006 ft 88 kts 136°
2026-05-04 14:35 47.74014 20.52737 3013 ft 91 kts 135°
2026-05-04 14:36 47.73620 20.53496 3028 ft 94 kts 135°
2026-05-04 14:36 47.73219 20.54269 3052 ft 92 kts 136°
2026-05-04 14:36 47.72830 20.55028 3050 ft 94 kts 135°
2026-05-04 14:36 47.72404 20.55791 3007 ft 97 kts 136°
2026-05-04 14:37 47.71985 20.56570 3001 ft 96 kts 134°
2026-05-04 14:37 47.71573 20.57356 2997 ft 97 kts 134°
2026-05-04 14:37 47.71169 20.58133 2988 ft 93 kts 135°
2026-05-04 14:37 47.70781 20.58880 2967 ft 93 kts 134°
2026-05-04 14:38 47.70399 20.59633 2949 ft 90 kts 134°
2026-05-04 14:38 47.70025 20.60367 2977 ft 86 kts 135°
2026-05-04 14:38 47.69675 20.61081 2971 ft 87 kts 132°
2026-05-04 14:38 47.69325 20.61832 2966 ft 87 kts 130°
2026-05-04 14:39 47.68983 20.62576 2953 ft 87 kts 132°
2026-05-04 14:39 47.68614 20.63277 2957 ft 85 kts 136°
2026-05-04 14:39 47.68243 20.63961 2967 ft 86 kts 135°
2026-05-04 14:40 47.67454 20.65353 3007 ft 90 kts 135°
2026-05-04 14:40 47.67062 20.66110 3004 ft 93 kts 135°
2026-05-04 14:40 47.66703 20.66909 2993 ft 94 kts 131°
2026-05-04 14:40 47.66355 20.67706 3036 ft 91 kts 132°
2026-05-04 14:41 47.66004 20.68497 3070 ft 93 kts 133°
2026-05-04 14:41 47.65621 20.69248 3042 ft 89 kts 138°
2026-05-04 14:41 47.64796 20.70601 3053 ft 91 kts 140°
2026-05-04 14:42 47.63897 20.72044 3006 ft 94 kts 139°
2026-05-04 14:42 47.63444 20.72724 2992 ft 92 kts 143°
2026-05-04 14:42 47.63027 20.73432 3004 ft 93 kts 133°
2026-05-04 14:43 47.62666 20.74227 2992 ft 93 kts 131°
2026-05-04 14:43 47.62315 20.74997 3012 ft 87 kts 132°
2026-05-04 14:43 47.61972 20.75745 3031 ft 87 kts 132°
2026-05-04 14:43 47.61623 20.76490 3008 ft 90 kts 130°
2026-05-04 14:44 47.61290 20.77267 3029 ft 89 kts 130°
2026-05-04 14:44 47.60980 20.78072 3011 ft 90 kts 126°
2026-05-04 14:44 47.60671 20.78847 2993 ft 87 kts 128°
2026-05-04 14:44 47.60343 20.79606 3018 ft 89 kts 130°
2026-05-04 14:45 47.60006 20.80404 2998 ft 94 kts 127°
2026-05-04 14:45 47.59670 20.81237 3003 ft 94 kts 129°
2026-05-04 14:45 47.59317 20.82065 2994 ft 95 kts 130°
2026-05-04 14:45 47.58942 20.82870 3009 ft 95 kts 130°
2026-05-04 14:46 47.58594 20.83705 3010 ft 95 kts 128°
2026-05-04 14:46 47.58240 20.84519 2983 ft 93 kts 131°
2026-05-04 14:46 47.57887 20.85299 2976 ft 90 kts 129°
2026-05-04 14:46 47.57540 20.86076 2993 ft 89 kts 130°
2026-05-04 14:47 47.57198 20.86832 2995 ft 89 kts 130°
2026-05-04 14:47 47.56851 20.87617 2983 ft 90 kts 133°
2026-05-04 14:47 47.56503 20.88378 2998 ft 89 kts 130°
2026-05-04 14:47 47.56186 20.89136 3011 ft 89 kts 128°
2026-05-04 14:48 47.55852 20.89920 2942 ft 92 kts 130°
2026-05-04 14:48 47.55496 20.90670 2968 ft 87 kts 130°
2026-05-04 14:48 47.55149 20.91422 2958 ft 89 kts 128°
2026-05-04 14:48 47.54817 20.92184 2977 ft 88 kts 128°
2026-05-04 14:49 47.54490 20.92947 2993 ft 88 kts 129°
2026-05-04 14:49 47.54159 20.93716 3010 ft 87 kts 129°
2026-05-04 14:49 47.53819 20.94446 3041 ft 85 kts 133°
2026-05-04 14:49 47.53473 20.95152 3044 ft 85 kts 132°
2026-05-04 14:50 47.53126 20.95856 3026 ft 84 kts 136°
2026-05-04 14:50 47.52755 20.96522 2986 ft 83 kts 139°
2026-05-04 14:50 47.52371 20.97147 2954 ft 83 kts 140°
2026-05-04 14:50 47.52003 20.97789 2948 ft 83 kts 135°
2026-05-04 14:51 47.51676 20.98501 2961 ft 83 kts 131°
2026-05-04 14:51 47.51345 20.99190 2952 ft 84 kts 130°
2026-05-04 14:51 47.51006 20.99899 2941 ft 83 kts 136°
2026-05-04 14:51 47.50649 21.00569 2955 ft 84 kts 136°
2026-05-04 14:52 47.50291 21.01269 2978 ft 86 kts 132°
2026-05-04 14:52 47.49934 21.01979 2981 ft 87 kts 133°
2026-05-04 14:52 47.49580 21.02706 2987 ft 87 kts 135°
2026-05-04 14:52 47.49211 21.03428 3005 ft 88 kts 133°
2026-05-04 14:53 47.48860 21.04172 3030 ft 88 kts 129°
2026-05-04 14:53 47.48547 21.04943 3065 ft 88 kts 126°
2026-05-04 14:53 47.48255 21.05734 3096 ft 87 kts 124°
2026-05-04 14:53 47.47976 21.06532 3053 ft 88 kts 124°
2026-05-04 14:54 47.47675 21.07318 3047 ft 87 kts 127°
2026-05-04 14:54 47.47367 21.08097 3012 ft 89 kts 126°
2026-05-04 14:54 47.47031 21.08868 2991 ft 88 kts 131°
2026-05-04 14:54 47.46702 21.09639 2991 ft 90 kts 129°
2026-05-04 14:55 47.46388 21.10431 3019 ft 88 kts 131°
2026-05-04 14:55 47.46065 21.11180 3034 ft 88 kts 130°
2026-05-04 14:55 47.45723 21.11936 3057 ft 88 kts 131°
2026-05-04 14:55 47.45336 21.12683 3005 ft 93 kts 136°
2026-05-04 14:56 47.44930 21.13422 2955 ft 92 kts 135°
2026-05-04 14:56 47.44509 21.14123 2941 ft 90 kts 139°
2026-05-04 14:56 47.44092 21.14788 2953 ft 86 kts 139°
2026-05-04 14:56 47.43680 21.15429 2959 ft 85 kts 138°
2026-05-04 14:57 47.43323 21.16143 2958 ft 87 kts 119°
2026-05-04 14:57 47.43287 21.17026 3001 ft 91 kts 81°
2026-05-04 14:57 47.43524 21.17915 3028 ft 94 kts 70°
2026-05-04 14:57 47.43813 21.18806 3012 ft 96 kts 68°
2026-05-04 14:58 47.44087 21.19693 3002 ft 96 kts 71°
2026-05-04 14:58 47.44352 21.20611 3020 ft 99 kts 71°
2026-05-04 14:58 47.44602 21.21552 3036 ft 99 kts 72°
2026-05-04 14:58 47.44851 21.22496 3012 ft 99 kts 75°
2026-05-04 14:59 47.45105 21.23434 3008 ft 98 kts 74°
2026-05-04 14:59 47.45357 21.24365 3037 ft 98 kts 72°
2026-05-04 14:59 47.45718 21.26300 3039 ft 95 kts 88°
2026-05-04 15:00 47.45824 21.27271 2939 ft 97 kts 90°
2026-05-04 15:00 47.45873 21.28265 2806 ft 96 kts 95°
2026-05-04 15:00 47.45882 21.29225 2709 ft 86 kts 95°
2026-05-04 15:01 47.45942 21.30956 2423 ft 85 kts 94°
2026-05-04 15:01 47.45963 21.31798 2318 ft 81 kts 95°
2026-05-04 15:01 47.45995 21.32627 2214 ft 82 kts 89°
2026-05-04 15:01 47.46064 21.33469 2069 ft 84 kts 89°
2026-05-04 15:02 47.46123 21.34324 1924 ft 84 kts 90°
2026-05-04 15:02 47.46220 21.35159 1762 ft 81 kts 89°
2026-05-04 15:02 47.46263 21.35976 1591 ft 79 kts 91°
2026-05-04 15:02 47.46458 21.36721 1473 ft 79 kts 55°
2026-05-04 15:03 47.46807 21.37319 1343 ft 75 kts 54°
2026-05-04 15:03 47.47180 21.37992 1307 ft 93 kts 49°
2026-05-04 15:03 47.47619 21.38767 1319 ft 101 kts 56°
2026-05-04 15:03 47.47850 21.39676 1339 ft 91 kts 94°
2026-05-04 15:04 47.47780 21.40549 1317 ft 77 kts 110°
2026-05-04 15:04 47.47521 21.41051 1143 ft 59 kts 171°
2026-05-04 15:04 47.47105 21.41068 927 ft 61 kts 216°
2026-05-04 15:04 47.46834 21.40553 708 ft 64 kts 231°
2026-05-04 15:05 47.46531 21.40058 466 ft 68 kts 229°
2026-05-04 15:05 47.46242 21.39562 315 ft 48 kts 229°
2026-05-04 15:05 47.46089 21.39306 311 ft 23 kts 229°
2026-05-04 15:05 47.46020 21.39174 312 ft 12 kts 232°
2026-05-04 15:06 47.45980 21.39097 312 ft 9 kts 232°
2026-05-04 15:06 47.45925 21.39042 312 ft 10 kts 207°
2026-05-04 15:06 47.45858 21.39002 310 ft 8 kts 199°
2026-05-04 15:07 47.45784 21.38974 308 ft 7 kts 206°
2026-05-04 15:07 47.45716 21.38927 308 ft 9 kts 203°
2026-05-04 15:07 47.45667 21.38882 310 ft 7 kts 214°
2026-05-04 15:07 47.45636 21.38889 310 ft 5 kts 186°
2026-05-04 15:08 47.45630 21.38888 310 ft 0 kts 179°